• In Hungary
  • List of Countries
  • For 7 days
  • Water Temperature
  • Satellite Maps
  • Weather Map
  • News
  • Weather Widgets
  • user-avatar
    Login

    Hourly Weather Halzanovo

    Today, 21 September, Friday

    Time Temperature Precipitation Wind Pressure Humidity
    00:00 -3°C° 0 mm 2 mps 618 mmHg 90%
    01:00 -4°C° 0 mm 2 mps 618 mmHg 91%
    02:00 -4°C° 0.1 mm 2 mps 618 mmHg 91%
    03:00 -4°C° 0.1 mm 2 mps 618 mmHg 91%
    04:00 -4°C° 0.1 mm 2 mps 618 mmHg 91%
    05:00 -4°C° 0.4 mm 2 mps 619 mmHg 91%
    06:00 -4°C° 0.4 mm 2 mps 619 mmHg 90%
    07:00 -4°C° 0.4 mm 2 mps 619 mmHg 90%
    08:00 -3°C° 0.4 mm 2 mps 620 mmHg 88%
    09:00 -3°C° 0.4 mm 2 mps 621 mmHg 86%
    10:00 -2°C° 0.4 mm 2 mps 621 mmHg 85%
    11:00 -2°C° 0.3 mm 2 mps 621 mmHg 84%
    12:00 -2°C° 0.3 mm 3 mps 622 mmHg 84%
    13:00 -1°C° 0.3 mm 3 mps 622 mmHg 83%
    14:00 -2°C° 0.3 mm 2 mps 622 mmHg 84%
    15:00 -2°C° 0.3 mm 2 mps 622 mmHg 86%
    16:00 -2°C° 0.3 mm 2 mps 622 mmHg 87%
    17:00 -3°C° 0.2 mm 2 mps 622 mmHg 89%
    18:00 -4°C° 0.2 mm 2 mps 622 mmHg 92%
    19:00 -2°C° 0.2 mm 1 mps 623 mmHg 94%
    20:00 -3°C° 0 mm 1 mps 623 mmHg 94%
    21:00 -3°C° 0 mm 1 mps 623 mmHg 95%
    22:00 -4°C° 0 mm 1 mps 623 mmHg 95%
    23:00 -4°C° 0 mm 1 mps 623 mmHg 95%

    Tomorrow, 22 September, Saturday

    Time Temperature Precipitation Wind Pressure Humidity
    00:00 -4°C° 0 mm 1 mps 623 mmHg 95%
    01:00 -4°C° 0 mm 1 mps 624 mmHg 95%
    02:00 -4°C° 0 mm 1 mps 624 mmHg 96%
    03:00 -4°C° 0 mm 1 mps 624 mmHg 96%
    04:00 -4°C° 0 mm 1 mps 624 mmHg 96%
    05:00 -4°C° 0 mm 1 mps 625 mmHg 94%
    06:00 -3°C° 0 mm 1 mps 625 mmHg 93%
    07:00 -2°C° 0 mm 1 mps 626 mmHg 91%
    08:00 0°C° 0 mm 1 mps 627 mmHg 86%
    09:00 +1°C° 0 mm 1 mps 627 mmHg 82%
    10:00 +3°C° 0 mm 1 mps 628 mmHg 77%
    11:00 +3°C° 0 mm 1 mps 628 mmHg 77%
    12:00 +2°C° 0 mm 2 mps 627 mmHg 76%
    13:00 +3°C° 0 mm 2 mps 627 mmHg 75%
    14:00 +2°C° 0 mm 2 mps 627 mmHg 76%
    15:00 +2°C° 0 mm 2 mps 627 mmHg 77%
    16:00 +2°C° 0 mm 2 mps 627 mmHg 78%
    17:00 +1°C° 0 mm 1 mps 626 mmHg 83%
    18:00 -1°C° 0 mm 1 mps 626 mmHg 88%
    19:00 -3°C° 0 mm 1 mps 625 mmHg 93%
    20:00 -3°C° 0 mm 1 mps 626 mmHg 94%
    21:00 -4°C° 0 mm 1 mps 626 mmHg 94%
    22:00 -4°C° 0 mm 1 mps 626 mmHg 94%
    23:00 -4°C° 0 mm 1 mps 626 mmHg 93%

    Day after tomorrow, 23 September, Sunday

    Time Temperature Precipitation Wind Pressure Humidity
    00:00 -4°C° 0 mm 1 mps 626 mmHg 92%
    01:00 -4°C° 0 mm 1 mps 626 mmHg 91%
    02:00 -4°C° 0 mm 1 mps 626 mmHg 90%
    03:00 -4°C° 0 mm 1 mps 626 mmHg 89%
    04:00 -4°C° 0 mm 1 mps 626 mmHg 88%
    05:00 -3°C° 0 mm 1 mps 627 mmHg 85%
    06:00 -2°C° 0 mm 1 mps 627 mmHg 82%
    07:00 -1°C° 0 mm 1 mps 628 mmHg 79%
    08:00 +1°C° 0 mm 1 mps 628 mmHg 74%
    09:00 +4°C° 0 mm 1 mps 629 mmHg 69%
    10:00 +6°C° 0 mm 1 mps 629 mmHg 64%
    11:00 +6°C° 0 mm 1 mps 629 mmHg 61%
    12:00 +7°C° 0 mm 1 mps 629 mmHg 59%
    13:00 +8°C° 0 mm 1 mps 629 mmHg 56%
    14:00 +7°C° 0 mm 1 mps 628 mmHg 59%
    15:00 +7°C° 0 mm 1 mps 628 mmHg 61%
    16:00 +6°C° 0 mm 1 mps 627 mmHg 64%
    17:00 +4°C° 0 mm 1 mps 627 mmHg 71%
    18:00 +2°C° 0 mm 1 mps 626 mmHg 78%
    19:00 0°C° 0 mm 1 mps 625 mmHg 85%
    20:00 -1°C° 0 mm 1 mps 625 mmHg 87%
    21:00 -1°C° 0 mm 1 mps 625 mmHg 88%
    22:00 -2°C° 0 mm 1 mps 625 mmHg 89%
    23:00 -2°C° 0 mm 1 mps 625 mmHg 90%

    24 September, Monday

    Time Temperature Precipitation Wind Pressure Humidity
    00:00 -2°C° 0 mm 1 mps 625 mmHg 90%
    01:00 -3°C° 0 mm 1 mps 624 mmHg 91%
    02:00 -3°C° 0 mm 1 mps 624 mmHg 91%
    03:00 -3°C° 0 mm 1 mps 624 mmHg 91%
    04:00 -3°C° 0 mm 1 mps 624 mmHg 91%
    05:00 -2°C° 0 mm 1 mps 624 mmHg 89%
    06:00 -1°C° 0 mm 1 mps 624 mmHg 86%
    07:00 0°C° 0 mm 1 mps 625 mmHg 83%
    08:00 +2°C° 0 mm 1 mps 625 mmHg 76%
    09:00 +3°C° 0 mm 2 mps 625 mmHg 69%
    10:00 +5°C° 0 mm 2 mps 626 mmHg 61%
    11:00 +6°C° 0 mm 2 mps 626 mmHg 58%
    12:00 +7°C° 0 mm 2 mps 626 mmHg 54%
    13:00 +7°C° 0 mm 2 mps 625 mmHg 51%
    14:00 +7°C° 0 mm 2 mps 625 mmHg 53%
    15:00 +8°C° 0 mm 1 mps 625 mmHg 55%
    16:00 +7°C° 0 mm 1 mps 624 mmHg 57%
    17:00 +5°C° 0 mm 1 mps 624 mmHg 64%
    18:00 +3°C° 0 mm 1 mps 623 mmHg 72%
    19:00 0°C° 0 mm 1 mps 622 mmHg 79%
    20:00 0°C° 0 mm 1 mps 622 mmHg 79%
    21:00 0°C° 0 mm 1 mps 622 mmHg 79%
    22:00 -1°C° 0 mm 1 mps 622 mmHg 80%
    23:00 -1°C° 0 mm 1 mps 622 mmHg 81%

    25 September, Tuesday

    Time Temperature Precipitation Wind Pressure Humidity
    00:00 -1°C° 0 mm 1 mps 622 mmHg 81%
    01:00 -1°C° 0 mm 1 mps 621 mmHg 82%
    02:00 -2°C° 0 mm 1 mps 621 mmHg 83%
    03:00 -2°C° 0 mm 1 mps 621 mmHg 84%
    04:00 -2°C° 0 mm 1 mps 621 mmHg 85%
    05:00 -1°C° 0 mm 1 mps 622 mmHg 82%
    06:00 0°C° 0 mm 1 mps 622 mmHg 79%
    07:00 +1°C° 0 mm 1 mps 622 mmHg 76%
    08:00 +3°C° 0 mm 1 mps 623 mmHg 68%
    09:00 +6°C° 0 mm 1 mps 624 mmHg 60%
    10:00 +8°C° 0 mm 1 mps 624 mmHg 52%
    11:00 +9°C° 0 mm 1 mps 624 mmHg 49%
    12:00 +10°C° 0 mm 1 mps 624 mmHg 46%
    13:00 +11°C° 0 mm 1 mps 624 mmHg 43%
    14:00 +10°C° 0 mm 1 mps 624 mmHg 46%
    15:00 +10°C° 0 mm 1 mps 623 mmHg 49%
    16:00 +9°C° 0 mm 1 mps 623 mmHg 52%
    17:00 +7°C° 0 mm 1 mps 623 mmHg 60%
    18:00 +5°C° 0 mm 1 mps 622 mmHg 67%
    19:00 +2°C° 0 mm 1 mps 621 mmHg 74%
    20:00 +2°C° 0 mm 1 mps 621 mmHg 75%
    21:00 +1°C° 0 mm 1 mps 621 mmHg 76%
    22:00 +1°C° 0 mm 1 mps 620 mmHg 78%
    23:00 +1°C° 0 mm 1 mps 620 mmHg 79%

    26 September, Wednesday

    Time Temperature Precipitation Wind Pressure Humidity
    00:00 -2°C° 0 mm 2 mps 620 mmHg 81%
    01:00 -2°C° 0 mm 2 mps 620 mmHg 82%
    02:00 -2°C° 0 mm 2 mps 620 mmHg 83%
    03:00 -2°C° 0 mm 2 mps 620 mmHg 85%
    04:00 -2°C° 0 mm 2 mps 620 mmHg 86%
    05:00 -1°C° 0 mm 2 mps 620 mmHg 84%
    06:00 +1°C° 0 mm 2 mps 620 mmHg 82%
    07:00 +1°C° 0 mm 2 mps 621 mmHg 81%
    08:00 +4°C° 0 mm 1 mps 621 mmHg 76%
    09:00 +6°C° 0 mm 1 mps 621 mmHg 71%
    10:00 +7°C° 0 mm 1 mps 622 mmHg 67%
    11:00 +8°C° 0.1 mm 1 mps 621 mmHg 65%
    12:00 +8°C° 0.1 mm 1 mps 621 mmHg 64%
    13:00 +9°C° 0.1 mm 1 mps 621 mmHg 62%
    14:00 +8°C° 0.1 mm 1 mps 621 mmHg 67%
    15:00 +7°C° 0.1 mm 1 mps 621 mmHg 72%
    16:00 +7°C° 0.1 mm 1 mps 621 mmHg 77%
    17:00 +6°C° 0.6 mm 1 mps 620 mmHg 83%
    18:00 +4°C° 0.6 mm 1 mps 620 mmHg 89%
    19:00 +3°C° 0.6 mm 1 mps 620 mmHg 94%
    20:00 +3°C° 0.7 mm 1 mps 620 mmHg 95%
    21:00 +3°C° 0.7 mm 1 mps 620 mmHg 96%
    22:00 +2°C° 0.7 mm 1 mps 619 mmHg 96%
    23:00 +2°C° 0.4 mm 1 mps 619 mmHg 96%
    Show more